Location: Kergonan
(48.2337°N, 4.5518°W)
Time: 20:33:40
(UTC+00:00)

Cosmos 2228 - Pass Details

Date: 18 January 2020
Orbit: 588 x 619 km, 82.5° (Epoch: 16 February)

Event Time Altitude Azimuth Distance (km) Brightness Sun altitude
Rises 07:00:37 0° 206° (SSW) 2,883 6.4 -10.1°
Reaches altitude 10° 07:02:55 10° 214° (SSW) 1,983 5.5 -9.7°
Maximum altitude 07:07:06 42° 285° (WNW) 895 3.4 -9.1°
Drops below altitude 10° 07:11:18 10° 357° (N) 1,995 5.4 -8.4°
Sets 07:13:39 0° 4° (N) 2,903 6.3 -8.1°
